| time (UTC) | temp C | wind direction | speed KPH | gust KPH | rain 1hr cm | rain 24hr cm | rain mn cm | humidity % | barometer mb |
| 20260502151536 | 13 | 39 | 6.4 | 14.5 | 0.00 | 0.00 | 0.00 | 56 | 1014.8 |
| 20260502123003 | 11 | 26 | 4.8 | 8.0 | 0.00 | 0.00 | 0.00 | 75 | 1014.1 |
| 20260502121505 | 11 | 27 | 3.2 | 8.0 | 0.00 | 0.00 | 0.00 | 77 | 1014.1 |
| 20260502114503 | 10 | 10 | 1.6 | 3.2 | 0.00 | 0.00 | 0.00 | 80 | 1014.2 |
| 20260502113004 | 10 | 17 | 1.6 | 4.8 | 0.00 | 0.00 | 0.00 | 81 | 1014.2 |
| 20260502111504 | 9 | 30 | 0.0 | 1.6 | 0.00 | 0.00 | 0.00 | 84 | 1014.2 |
| 20260502110004 | 9 | 30 | 0.0 | 1.6 | 0.00 | 0.00 | 0.00 | 84 | 1014.2 |
| 20260502104511 | 9 | 36 | 0.0 | 3.2 | 0.00 | 0.00 | 0.00 | 84 | 1013.9 |
| 20260502103006 | 8 | 246 | 0.0 | 3.2 | 0.00 | 0.00 | 0.00 | 84 | 1013.6 |
| 20260502101504 | 8 | 246 | 0.0 | 0.0 | 0.00 | 0.00 | 0.00 | 83 | 1013.6 |
| 20260502091508 | 9 | 246 | 0.0 | 0.0 | 0.00 | 0.00 | 0.00 | 82 | 1013.4 |
| 20260502071511 | 10 | 338 | 0.0 | 3.2 | 0.00 | 0.00 | 0.00 | 80 | 1013.1 |
| 20260502070008 | 10 | 216 | 0.0 | 3.2 | 0.00 | 0.00 | 0.00 | 80 | 1013.0 |
| 20260502064518 | 11 | 342 | 0.0 | 3.2 | 0.00 | 0.00 | 0.00 | 79 | 1012.9 |
| 20260502063017 | 11 | 203 | 0.0 | 0.0 | 0.00 | 0.00 | 0.00 | 77 | 1012.7 |
| 20260502061511 | 11 | 203 | 0.0 | 1.6 | 0.00 | 0.00 | 0.00 | 77 | 1012.8 |
| 20260502060012 | 11 | 166 | 0.0 | 4.8 | 0.00 | 0.00 | 0.00 | 76 | 1013.0 |
| 20260502054507 | 11 | 192 | 0.0 | 3.2 | 0.00 | 0.00 | 0.00 | 76 | 1013.1 |
| 20260502053017 | 12 | 181 | 0.0 | 6.4 | 0.00 | 0.00 | 0.00 | 76 | 1013.3 |
| 20260502051514 | 12 | 180 | 0.0 | 4.8 | 0.00 | 0.00 | 0.00 | 76 | 1013.5 |
| 20260502050015 | 12 | 197 | 0.0 | 6.4 | 0.00 | 0.00 | 0.00 | 75 | 1013.6 |
| 20260502044516 | 12 | 162 | 0.0 | 3.2 | 0.00 | 0.00 | 0.00 | 75 | 1013.7 |
| 20260502043017 | 12 | 162 | 0.0 | 3.2 | 0.00 | 0.00 | 0.00 | 1013.9 | |
| 20260502041510 | 12 | 178 | 0.0 | 3.2 | 0.00 | 0.00 | 0.00 | 75 | 1013.9 |
| 20260502040006 | 12 | 182 | 1.6 | 4.8 | 0.00 | 0.00 | 0.00 | 74 | 1013.7 |
| 20260502034506 | 12 | 195 | 0.0 | 3.2 | 0.00 | 0.00 | 0.00 | 74 | 1013.8 |
| 20260502033012 | 12 | 224 | 0.0 | 3.2 | 0.00 | 0.00 | 0.00 | 75 | 1013.7 |
| 20260502031515 | 11 | 204 | 1.6 | 11.3 | 0.00 | 0.00 | 0.00 | 76 | 1013.5 |
| 20260502030001 | 11 | 179 | 1.6 | 4.8 | 0.00 | 0.00 | 0.00 | 77 | 1013.3 |
| 20260502024504 | 11 | 157 | 1.6 | 6.4 | 0.00 | 0.00 | 0.00 | 77 | 1013.4 |
| 20260502023006 | 11 | 155 | 0.0 | 3.2 | 0.00 | 0.00 | 0.00 | 74 | 1013.6 |
| 20260502021513 | 11 | 119 | 0.0 | 0.0 | 0.00 | 0.00 | 0.00 | 73 | 1013.4 |
| 20260502020025 | 11 | 119 | 0.0 | 3.2 | 0.00 | 0.00 | 0.00 | 72 | 1013.4 |
| 20260502014505 | 11 | 136 | 0.0 | 3.2 | 0.00 | 0.00 | 0.00 | 71 | 1013.3 |
| 20260502013003 | 12 | 127 | 0.0 | 4.8 | 0.00 | 0.00 | 0.00 | 70 | 1013.4 |
| 20260502011512 | 12 | 111 | 0.0 | 3.2 | 0.00 | 0.00 | 0.00 | 67 | 1013.2 |
| 20260502010014 | 12 | 69 | 0.0 | 3.2 | 0.00 | 0.00 | 0.00 | 66 | 1013.1 |
| 20260502004520 | 13 | 123 | 0.0 | 6.4 | 0.00 | 0.00 | 0.00 | 65 | 1012.8 |
| 20260502003024 | 13 | 130 | 1.6 | 9.7 | 0.00 | 0.00 | 0.00 | 64 | 1012.6 |
| 20260502001511 | 14 | 69 | 1.6 | 9.7 | 0.00 | 0.00 | 0.00 | 63 | 1012.7 |
| 20260502000017 | 15 | 124 | 1.6 | 11.3 | 0.00 | 0.00 | 0.00 | 63 | 1012.7 |
| 20260501234517 | 15 | 149 | 3.2 | 9.7 | 0.00 | 0.00 | 0.00 | 61 | 1012.6 |
| 20260501233021 | 16 | 88 | 1.6 | 9.7 | 0.00 | 0.00 | 0.00 | 59 | 1012.7 |
| 20260501231505 | 16 | 143 | 1.6 | 11.3 | 0.00 | 0.00 | 0.00 | 56 | 1012.5 |
| 20260501230010 | 17 | 91 | 3.2 | 14.5 | 0.00 | 0.00 | 0.00 | 58 | 1012.4 |
| 20260501224518 | 17 | 130 | 3.2 | 14.5 | 0.00 | 0.00 | 0.00 | 56 | 1012.4 |
| 20260501223018 | 18 | 133 | 6.4 | 17.7 | 0.00 | 0.00 | 0.00 | 51 | 1012.3 |
| 20260501221523 | 19 | 211 | 1.6 | 9.7 | 0.00 | 0.00 | 0.00 | 47 | 1012.4 |
| 20260501220008 | 19 | 227 | 3.2 | 9.7 | 0.00 | 0.00 | 0.00 | 43 | 1012.5 |
| 20260501214515 | 19 | 143 | 3.2 | 14.5 | 0.00 | 0.00 | 0.00 | 45 | 1012.5 |
| 20260501213025 | 20 | 111 | 4.8 | 16.1 | 0.00 | 0.00 | 0.00 | 43 | 1012.6 |
| 20260501211521 | 20 | 219 | 3.2 | 9.7 | 0.00 | 0.00 | 0.00 | 44 | 1012.6 |
| 20260501210006 | 20 | 153 | 1.6 | 8.0 | 0.00 | 0.00 | 0.00 | 41 | 1012.7 |
| 20260501204510 | 20 | 167 | 4.8 | 14.5 | 0.00 | 0.00 | 0.00 | 40 | 1012.8 |
| 20260501203017 | 20 | 210 | 3.2 | 12.9 | 0.00 | 0.00 | 0.00 | 38 | 1013.1 |
| 20260501201523 | 20 | 182 | 1.6 | 11.3 | 0.00 | 0.00 | 0.00 | 39 | 1013.3 |
| 20260501200027 | 19 | 119 | 6.4 | 12.9 | 0.00 | 0.00 | 0.00 | 44 | 1013.5 |
| 20260501194508 | 20 | 97 | 3.2 | 11.3 | 0.00 | 0.00 | 0.00 | 46 | 1013.5 |
| 20260501193036 | 20 | 210 | 3.2 | 9.7 | 0.00 | 0.00 | 0.00 | 46 | 1014.0 |
| 20260501191519 | 20 | 115 | 3.2 | 12.9 | 0.00 | 0.00 | 0.00 | 43 | 1014.1 |
| 20260501190005 | 19 | 193 | 3.2 | 12.9 | 0.00 | 0.00 | 0.00 | 45 | 1014.4 |
| 20260501184527 | 19 | 202 | 4.8 | 9.7 | 0.00 | 0.00 | 0.00 | 38 | 1014.6 |
| 20260501183027 | 18 | 141 | 3.2 | 11.3 | 0.00 | 0.00 | 0.00 | 39 | 1014.9 |
| 20260501181502 | 18 | 81 | 3.2 | 6.4 | 0.00 | 0.00 | 0.00 | 41 | 1015.1 |
| 20260501180004 | 18 | 235 | 6.4 | 11.3 | 0.00 | 0.00 | 0.00 | 40 | 1015.2 |
| 20260501174528 | 19 | 231 | 3.2 | 6.4 | 0.00 | 0.00 | 0.00 | 40 | 1015.1 |
| 20260501173029 | 18 | 109 | 3.2 | 12.9 | 0.00 | 0.00 | 0.00 | 42 | 1015.3 |
| 20260501171516 | 19 | 89 | 1.6 | 9.7 | 0.00 | 0.00 | 0.00 | 42 | 1015.3 |
| 20260501170023 | 18 | 248 | 1.6 | 8.0 | 0.00 | 0.00 | 0.00 | 47 | 1015.5 |
| 20260501164527 | 17 | 152 | 3.2 | 9.7 | 0.00 | 0.00 | 0.00 | 42 | 1015.6 |
| 20260501163039 | 17 | 240 | 1.6 | 6.4 | 0.00 | 0.00 | 0.00 | 44 | 1015.8 |
| 20260501161526 | 17 | 338 | 3.2 | 6.4 | 0.00 | 0.00 | 0.00 | 44 | 1015.9 |